User: anonymous   Login
Location: Unspecified
(43.4680°N, 87.1740°E)
Time: 00:44:23
(UTC+00:00)
Language:

Nadezhda 2 Rocket - Orbit

View from above orbital plane
View from above orbital plane
View from above satellite
View from above satellite

Ground track
Ground track

The orbit data is extracted from the following two-line orbital elements,

1 20509U 90017B   21169.55555203 -.00000019  00000-0 -35761-4 0  9990
2 20509  82.9523 322.3356 0043936  39.7191 320.7168 13.75598315571058
Epoch (UTC): 18 June 2021 13:19:59
Eccentricity: 0.0043936
inclination: 82.9523°
perigee height: 947 km
apogee height: 1012 km
right ascension of ascending node: 322.3356°
argument of perigee: 39.7191°
revolutions per day: 13.75598315
mean anomaly at epoch: 320.7168°
orbit number at epoch: 57105

The dashed part of the orbit path shows where the satellite is in the earth's shadow,  

DLR